Flag for U.S.A. Weather past 2 weeks in Vevay, Indiana, U.S.A.

Now
70 °F

Low clouds.


Feels Like: 65 °F
Forecast: 68 / 76 °F
Wind: 12 mph from Northwest

Location: Cincinnati / Northern Kentucky International Airport

Current Time: Jul 8, 2015 at 12:25:00 AM

Latest Report: Jul 7, 2015 at 10:52 PM


Visibility: 10 mi

Pressure: 29.99 "Hg

Humidity: 93%

Dew point: 68 °F

Location of VevayLocation

Historic Weather in Vevay — Graph

°F

Vevay temperature yesterday

Maximum temperature yesterday: 79 °F (at 1:52 PM)
Minimum temperature yesterday: 72 °F (at 10:04 PM)
Average temperature yesterday: 75 °F

Past Weeks' High & Low Weather Summary

 TemperatureHumidityPressure
High88 °F (Jun 23, 2:52 PM)100% (Jul 1, 4:52 AM)30.16 "Hg (Jul 1, 4:52 AM)
Low56 °F (Jun 28, 5:52 AM)33% (Jun 24, 1:52 PM)29.71 "Hg (Jun 27, 4:52 AM)
Average72 °F76%29.93 "Hg
* Reported Jun 22 10:52 PM — Jul 7 10:04 PM, Vevay, Weather by CustomWeather, © 2015

Note: Actual official high and low records may vary slightly from our data, if they occured in-between our weather recording intervals... More about our weather records

Advertising

Vevay weather history for previous 24 hours

 ConditionsComfort  
Time TempWeatherWind HumidityBarometerVisibility
10:04 PM
Tue, Jul 7
72 °FLight rain. Fog.8 mph94%30.00 "Hg3 mi
9:52 PM72 °FMostly cloudy.7 mph93%29.96 "Hg8 mi
8:52 PM72 °FMostly cloudy.6 mph93%29.94 "Hg10 mi
7:52 PM73 °FLight rain. Fog.10 mph90%29.94 "Hg4 mi
6:52 PM74 °FLight rain. Fog.10 mph91%29.94 "Hg4 mi
5:52 PM75 °FLight rain. Fog.8 mph88%29.94 "Hg5 mi
4:52 PM77 °FMostly cloudy.12 mph85%29.93 "Hg7 mi
3:52 PM76 °FLight rain. Cloudy.13 mph85%29.93 "Hg5 mi
2:52 PM78 °FCloudy.13 mph79%29.93 "Hg10 mi
1:52 PM79 °FMostly cloudy.10 mph77%29.93 "Hg10 mi
12:52 PM77 °FLight rain. Cloudy.18 mph85%29.93 "Hg7 mi
11:52 AM78 °FOvercast.10 mph82%29.96 "Hg8 mi
10:52 AM77 °FLight rain. Mostly cloudy.8 mph85%29.96 "Hg7 mi
9:52 AM77 °FOvercast.10 mph85%29.96 "Hg7 mi
8:52 AM75 °FLow clouds.12 mph88%29.97 "Hg7 mi
7:52 AM74 °FPartly sunny.9 mph91%29.96 "Hg8 mi
6:52 AM73 °FPartly cloudy.7 mph90%29.96 "Hg8 mi
5:52 AM73 °FOvercast.8 mph90%29.95 "Hg9 mi
4:52 AM73 °FMostly cloudy.8 mph88%29.96 "Hg9 mi
3:52 AM73 °FPartly cloudy.8 mph88%29.96 "Hg9 mi
2:52 AM72 °FPassing clouds.8 mph91%29.96 "Hg8 mi
1:52 AM72 °FPassing clouds.7 mph91%29.97 "Hg7 mi
12:52 AM72 °FFog.6 mph87%29.98 "Hg6 mi
Weather by CustomWeather, © 2015

See weather overviewHow to use our weather pages